Location: Larkspur
(54.4391°N, 113.7691°W)
Time: 07:32:30
(UTC+00:00)

METEOR M2 - Visible Passes

Search period start: 03 December 2023 00:00
Search period end: 13 December 2023 00:00
Orbit: 819 x 826 km, 98.4° (Epoch: 02 December)

Date Brightness Start Highest point End Pass type
(mag) Time Alt. Az. Time Alt. Az. Time Alt. Az.
03 Dec ? 00:13:41 10° SSE 00:19:05 87° ENE 00:24:32 10° NNW visible
03 Dec ? 01:56:11 10° SW 01:59:59 19° W 02:03:47 10° NW visible
03 Dec ? 12:24:48 10° NE 12:28:58 22° E 12:33:07 10° SE visible
03 Dec ? 14:04:21 10° NNE 14:09:44 75° WNW 14:15:05 10° SSW visible
03 Dec ? 23:53:42 10° SSE 23:59:02 64° ENE 00:04:23 10° N visible
04 Dec ? 01:35:09 10° SSW 01:39:38 26° W 01:44:09 10° NW visible
04 Dec ? 12:05:19 10° NE 12:08:36 16° E 12:11:52 10° ESE visible
04 Dec ? 13:44:14 10° NNE 13:49:39 81° ESE 13:55:01 10° SSW visible
05 Dec ? 01:14:25 10° SSW 01:19:21 36° W 01:24:20 10° NNW visible
05 Dec ? 11:46:34 10° ENE 11:48:10 11° E 11:49:45 10° E visible
05 Dec ? 13:24:11 10° NNE 13:29:31 59° E 13:34:48 10° S visible
06 Dec ? 00:53:55 10° S 00:59:08 50° W 01:04:24 10° NNW visible
06 Dec ? 13:04:12 10° NNE 13:09:19 42° E 13:14:24 10° SSE visible
06 Dec ? 14:44:29 10° N 14:49:30 40° WNW 14:54:28 10° SW visible
07 Dec ? 00:33:36 10° S 00:38:58 69° WSW 00:44:22 10° NNW visible
07 Dec ? 02:17:33 10° WSW 02:20:10 14° W 02:22:48 10° NW visible
07 Dec ? 12:44:18 10° NNE 12:49:04 31° E 12:53:47 10° SSE visible
07 Dec ? 14:24:17 10° N 14:29:31 55° WNW 14:34:44 10° SW visible
08 Dec ? 00:13:27 10° SSE 00:18:51 87° ENE 00:24:17 10° NNW visible
08 Dec ? 01:55:59 10° SW 01:59:45 19° W 02:03:33 10° NW visible
08 Dec ? 12:24:34 10° NE 12:28:45 22° E 12:32:54 10° SE visible
08 Dec ? 14:04:07 10° NNE 14:09:30 74° WNW 14:14:50 10° SSW visible
08 Dec ? 23:53:29 10° SSE 23:58:48 65° ENE 00:04:09 10° NNW visible
09 Dec ? 01:34:56 10° SSW 01:39:24 26° W 01:43:54 10° NW visible
09 Dec ? 12:05:04 10° NE 12:08:22 16° E 12:11:39 10° ESE visible
09 Dec ? 13:44:00 10° NNE 13:49:25 82° ESE 13:54:47 10° SSW visible
10 Dec ? 01:14:11 10° SSW 01:19:07 36° W 01:24:05 10° NNW visible
10 Dec ? 11:46:17 10° ENE 11:47:56 11° E 11:49:34 10° E visible
10 Dec ? 13:23:56 10° NNE 13:29:17 59° ESE 13:34:34 10° S visible
11 Dec ? 00:53:41 10° S 00:58:54 50° W 01:04:09 10° NNW visible
11 Dec ? 13:03:57 10° NNE 13:09:04 43° E 13:14:09 10° SSE visible
11 Dec ? 14:44:15 10° N 14:49:15 40° WNW 14:54:13 10° SW visible
12 Dec ? 00:33:22 10° S 00:38:43 69° WSW 00:44:07 10° NNW visible
12 Dec ? 02:17:21 10° WSW 02:19:56 13° W 02:22:31 10° NW visible
12 Dec ? 12:44:03 10° NNE 12:48:49 31° E 12:53:32 10° SSE visible
12 Dec ? 14:24:02 10° N 14:29:17 54° WNW 14:34:29 10° SW visible
